When you browse on this site, cookies collect data to enhance your experience and personalize the content and advertising you see.
Visit our Privacy Policy to learn more. By continuing to use the site, you agree to this use of cookies and data.

Hourly Weather Dusetos

Today, 7 August, Friday

Time Temperature Precipitation Wind Pressure Humidity
00:00 +15°C° 0 mm 0 mps 760 mmHg 84%
01:00 +15°C° 0 mm 0 mps 760 mmHg 85%
02:00 +14°C° 0 mm 0 mps 760 mmHg 86%
03:00 +14°C° 0 mm 0 mps 760 mmHg 86%
04:00 +14°C° 0 mm 0 mps 760 mmHg 87%
05:00 +14°C° 0 mm 0 mps 760 mmHg 88%
06:00 +16°C° 0 mm 0 mps 760 mmHg 81%
07:00 +18°C° 0 mm 0 mps 760 mmHg 75%
08:00 +20°C° 0 mm 0 mps 761 mmHg 69%
09:00 +22°C° 0 mm 0 mps 761 mmHg 64%
10:00 +23°C° 0 mm 0 mps 761 mmHg 60%
11:00 +25°C° 0 mm 0 mps 760 mmHg 55%
12:00 +27°C° 0 mm 1 mps 760 mmHg 53%
13:00 +28°C° 0 mm 1 mps 760 mmHg 52%
14:00 +28°C° 0 mm 1 mps 760 mmHg 50%
15:00 +28°C° 0 mm 1 mps 759 mmHg 52%
16:00 +27°C° 0 mm 2 mps 759 mmHg 54%
17:00 +27°C° 0 mm 2 mps 759 mmHg 56%
18:00 +25°C° 0 mm 2 mps 759 mmHg 63%
19:00 +23°C° 0 mm 2 mps 759 mmHg 70%
20:00 +21°C° 0 mm 1 mps 759 mmHg 78%
21:00 +20°C° 0 mm 1 mps 759 mmHg 80%
22:00 +19°C° 0 mm 1 mps 759 mmHg 82%
23:00 +18°C° 0 mm 1 mps 759 mmHg 85%

Tomorrow, 8 August, Saturday

Time Temperature Precipitation Wind Pressure Humidity
00:00 +18°C° 0 mm 1 mps 759 mmHg 87%
01:00 +18°C° 0 mm 1 mps 759 mmHg 89%
02:00 +18°C° 0 mm 1 mps 759 mmHg 92%
03:00 +16°C° 0 mm 1 mps 759 mmHg 92%
04:00 +16°C° 0 mm 1 mps 759 mmHg 93%
05:00 +16°C° 0 mm 1 mps 759 mmHg 93%
06:00 +19°C° 0 mm 1 mps 759 mmHg 87%
07:00 +21°C° 0 mm 1 mps 759 mmHg 81%
08:00 +23°C° 0 mm 1 mps 759 mmHg 74%
09:00 +24°C° 0 mm 1 mps 759 mmHg 69%
10:00 +26°C° 0 mm 1 mps 758 mmHg 63%
11:00 +28°C° 0 mm 1 mps 758 mmHg 57%
12:00 +28°C° 0 mm 1 mps 758 mmHg 56%
13:00 +28°C° 0 mm 1 mps 758 mmHg 55%
14:00 +28°C° 0 mm 1 mps 757 mmHg 53%
15:00 +28°C° 0 mm 1 mps 757 mmHg 56%
16:00 +27°C° 0 mm 1 mps 757 mmHg 58%
17:00 +27°C° 0 mm 1 mps 756 mmHg 61%
18:00 +25°C° 0 mm 1 mps 756 mmHg 67%
19:00 +23°C° 0 mm 1 mps 756 mmHg 74%
20:00 +22°C° 0 mm 1 mps 756 mmHg 80%
21:00 +21°C° 0 mm 1 mps 756 mmHg 83%
22:00 +20°C° 0 mm 1 mps 756 mmHg 86%
23:00 +17°C° 0 mm 0 mps 756 mmHg 89%

Day after tomorrow, 9 August, Sunday

Time Temperature Precipitation Wind Pressure Humidity
00:00 +17°C° 0 mm 0 mps 756 mmHg 90%
01:00 +17°C° 0 mm 0 mps 756 mmHg 91%
02:00 +17°C° 0 mm 0 mps 756 mmHg 92%
03:00 +16°C° 0 mm 0 mps 755 mmHg 92%
04:00 +16°C° 0 mm 0 mps 755 mmHg 93%
05:00 +16°C° 0 mm 0 mps 755 mmHg 93%
06:00 +18°C° 0 mm 0 mps 755 mmHg 87%
07:00 +20°C° 0 mm 0 mps 755 mmHg 81%
08:00 +22°C° 0 mm 0 mps 755 mmHg 74%
09:00 +22°C° 0.5 mm 0 mps 755 mmHg 72%
10:00 +25°C° 0.5 mm 1 mps 755 mmHg 70%
11:00 +26°C° 0.5 mm 1 mps 755 mmHg 68%
12:00 +27°C° 0.6 mm 1 mps 755 mmHg 66%
13:00 +27°C° 0.6 mm 1 mps 755 mmHg 64%
14:00 +27°C° 0.6 mm 1 mps 754 mmHg 62%
15:00 +27°C° 0.4 mm 1 mps 754 mmHg 64%
16:00 +27°C° 0.4 mm 1 mps 754 mmHg 65%
17:00 +27°C° 0.4 mm 1 mps 753 mmHg 66%
18:00 +25°C° 0.1 mm 1 mps 753 mmHg 72%
19:00 +23°C° 0.1 mm 1 mps 754 mmHg 79%
20:00 +21°C° 0.1 mm 1 mps 754 mmHg 85%
21:00 +21°C° 0 mm 1 mps 754 mmHg 87%
22:00 +20°C° 0 mm 1 mps 754 mmHg 88%
23:00 +17°C° 0 mm 0 mps 754 mmHg 90%

10 August, Monday

Time Temperature Precipitation Wind Pressure Humidity
00:00 +17°C° 0 mm 0 mps 754 mmHg 91%
01:00 +17°C° 0 mm 0 mps 754 mmHg 92%
02:00 +18°C° 0 mm 1 mps 754 mmHg 93%
03:00 +16°C° 0 mm 0 mps 754 mmHg 93%
04:00 +16°C° 0 mm 0 mps 754 mmHg 93%
05:00 +16°C° 0 mm 0 mps 754 mmHg 93%
06:00 +17°C° 0 mm 0 mps 754 mmHg 89%
07:00 +21°C° 0 mm 1 mps 754 mmHg 84%
08:00 +23°C° 0 mm 1 mps 754 mmHg 80%
09:00 +24°C° 0.2 mm 1 mps 754 mmHg 75%
10:00 +25°C° 0.2 mm 1 mps 754 mmHg 70%
11:00 +27°C° 0.2 mm 2 mps 754 mmHg 65%
12:00 +27°C° 0.4 mm 2 mps 754 mmHg 64%
13:00 +27°C° 0.4 mm 2 mps 753 mmHg 63%
14:00 +27°C° 0.4 mm 2 mps 753 mmHg 62%
15:00 +27°C° 0.1 mm 2 mps 753 mmHg 62%
16:00 +27°C° 0.1 mm 2 mps 753 mmHg 63%
17:00 +27°C° 0.1 mm 2 mps 753 mmHg 63%
18:00 +25°C° 0.1 mm 2 mps 753 mmHg 71%
19:00 +23°C° 0.1 mm 2 mps 753 mmHg 79%
20:00 +20°C° 0.1 mm 2 mps 753 mmHg 87%
21:00 +19°C° 0 mm 2 mps 753 mmHg 88%
22:00 +18°C° 0 mm 2 mps 753 mmHg 89%
23:00 +17°C° 0 mm 2 mps 754 mmHg 90%

11 August, Tuesday

Time Temperature Precipitation Wind Pressure Humidity
00:00 +16°C° 0 mm 2 mps 754 mmHg 90%
01:00 +16°C° 0 mm 2 mps 754 mmHg 89%
02:00 +15°C° 0 mm 2 mps 754 mmHg 88%
03:00 +14°C° 0 mm 2 mps 754 mmHg 88%
04:00 +13°C° 0 mm 2 mps 754 mmHg 87%
05:00 +13°C° 0 mm 2 mps 754 mmHg 86%
06:00 +14°C° 0 mm 2 mps 754 mmHg 83%
07:00 +16°C° 0 mm 2 mps 754 mmHg 79%
08:00 +17°C° 0 mm 2 mps 754 mmHg 75%
09:00 +18°C° 0 mm 3 mps 754 mmHg 70%
10:00 +20°C° 0 mm 3 mps 754 mmHg 64%
11:00 +21°C° 0 mm 3 mps 754 mmHg 59%
12:00 +21°C° 0 mm 3 mps 754 mmHg 59%
13:00 +22°C° 0 mm 3 mps 754 mmHg 58%
14:00 +22°C° 0 mm 4 mps 754 mmHg 58%
15:00 +22°C° 0 mm 4 mps 754 mmHg 58%
16:00 +21°C° 0 mm 3 mps 754 mmHg 58%
17:00 +21°C° 0 mm 3 mps 754 mmHg 58%
18:00 +19°C° 0 mm 3 mps 754 mmHg 65%
19:00 +18°C° 0 mm 2 mps 754 mmHg 72%
20:00 +16°C° 0 mm 2 mps 754 mmHg 79%
21:00 +15°C° 0 mm 2 mps 755 mmHg 84%
22:00 +15°C° 0 mm 2 mps 755 mmHg 89%
23:00 +14°C° 0 mm 2 mps 755 mmHg 94%

12 August, Wednesday

Time Temperature Precipitation Wind Pressure Humidity
00:00 +13°C° 0 mm 2 mps 755 mmHg 95%
01:00 +12°C° 0 mm 2 mps 756 mmHg 96%
02:00 +12°C° 0 mm 2 mps 756 mmHg 97%
03:00 +12°C° 0 mm 2 mps 756 mmHg 97%
04:00 +10°C° 0 mm 2 mps 756 mmHg 97%
05:00 +10°C° 0 mm 2 mps 756 mmHg 97%
06:00 +12°C° 0 mm 2 mps 756 mmHg 89%
07:00 +14°C° 0 mm 2 mps 756 mmHg 82%
08:00 +14°C° 0 mm 3 mps 756 mmHg 74%
09:00 +17°C° 0 mm 3 mps 756 mmHg 67%
10:00 +18°C° 0 mm 3 mps 756 mmHg 59%
11:00 +19°C° 0 mm 4 mps 756 mmHg 51%
12:00 +20°C° 0 mm 3 mps 756 mmHg 50%
13:00 +20°C° 0 mm 3 mps 756 mmHg 48%
14:00 +21°C° 0 mm 3 mps 756 mmHg 47%
15:00 +20°C° 0 mm 3 mps 756 mmHg 50%
16:00 +20°C° 0 mm 3 mps 756 mmHg 52%
17:00 +20°C° 0 mm 3 mps 756 mmHg 55%
18:00 +18°C° 0 mm 3 mps 756 mmHg 61%
19:00 +17°C° 0 mm 2 mps 756 mmHg 67%
20:00 +15°C° 0 mm 2 mps 756 mmHg 73%
21:00 +14°C° 0 mm 1 mps 756 mmHg 75%
22:00 +13°C° 0 mm 1 mps 756 mmHg 77%
23:00 +12°C° 0 mm 1 mps 757 mmHg 80%
Show more